Location: Newark
(58.8333°N, 23.5833°E)
Time: 22:36:44
(UTC+00:00)

A-11 Canister half - Pass Details

Date: 26 November 2019
Orbit: 1515 x 1685 km, 47.2° (Epoch: 05 December)

Event Time Altitude Azimuth Distance (km) Brightness Sun altitude
Rises 21:38:09 0° 281° (W) 4,945 11.9 -51.7°
Enters shadow 21:41:26 - 268° (W) 4,284 11.4 -51.8°
Reaches altitude 10° 21:43:38 10° 257° (WSW) 3,950 - -51.8°
Maximum altitude 21:47:47 13° 233° (SW) 3,672 - -51.9°
Drops below altitude 10° 21:51:56 10° 208° (SSW) 3,921 - -52.0°
Sets 21:57:23 0° 184° (S) 4,878 - -52.1°
